Tucson, AZ

5:44 AM MST on February 24, 2018 (GMT -0700)
Tucson International

Weather History for KTUS - December, 2013

Change the Weather History Date:

Tuesday, December 3, 2013

  Actual Average Record
Temperature  
Mean Temperature 60 °F 54 °F  
Max Temperature 75 °F 67 °F 84 °F (1954)
Min Temperature 45 °F 41 °F 22 °F (1934)
Degree Days  
Heating Degree Days 5 11  
Month to date heating degree days 16 33  
Since 1 July heating degree days 122 239  
Cooling Degree Days 0 0  
Month to date cooling degree days 0 0  
Year to date cooling degree days 3653 3146  
Growing Degree Days 10 (Base 50)    
Moisture  
Dew Point 33 °F    
Average Humidity 38    
Maximum Humidity 61    
Minimum Humidity 15    
Precipitation  
Precipitation 0.00 in 0.03 in 2.15 in (1906)
Month to date precipitation 0.00 0.08  
Year to date precipitation 7.70 10.74  
Sea Level Pressure  
Sea Level Pressure 29.77 in    
Wind  
Wind Speed 6 mph (South)    
Max Wind Speed 17 mph    
Max Gust Speed 22 mph    
Visibility 10 miles    
Events      
T = Trace of Precipitation, MM = Missing Value Source: NWS Daily Summary

Daily Weather History Graph

Daily Weather History Graph

Search for Another Location

Airport or City:

Trip Planner

Search our weather history database for the weather conditions in past years. The results will help you decide how hot, cold, wet, or windy it might be!

Date:

Astronomy

Dec. 03, 2013 Rise Set
Actual Time 7:08 AM MST 5:18 PM MST
Civil Twilight 6:41 AM MST 5:45 PM MST
Nautical Twilight 6:11 AM MST 6:15 PM MST
Astronomical Twilight 5:41 AM MST 6:45 PM MST
Moon 7:42 AM MST (12/3) 6:24 PM MST (12/3)
Length of Visible Light 11h 03m
Length of Day
10h 10m
New Moon, 1% of the Moon is Illuminated
Dec 3
New Moon
Dec 9
First Quarter
Dec 17
Full
Dec 25
Last Quarter
Jan 1
New

Hourly Weather History & Observations

Time (MST) Temp. Dew Point Humidity Pressure Visibility Wind Dir Wind Speed Gust Speed Precip Events Conditions
12:53 AM 48.0 °F 35.1 °F 61% 29.89 in 10.0 mi West 3.5 mph - N/A   Clear
1:53 AM 48.9 °F 36.0 °F 61% 29.86 in 10.0 mi SSE 6.9 mph - N/A   Clear
2:53 AM 48.9 °F 34.0 °F 56% 29.84 in 10.0 mi SSE 4.6 mph - N/A   Clear
3:53 AM 48.9 °F 32.0 °F 52% 29.83 in 10.0 mi SE 6.9 mph - N/A   Clear
4:53 AM 46.0 °F 33.1 °F 61% 29.83 in 10.0 mi Calm Calm - N/A   Clear
5:53 AM 46.0 °F 34.0 °F 63% 29.84 in 10.0 mi Calm Calm - N/A   Clear
6:53 AM 48.0 °F 30.9 °F 52% 29.84 in 10.0 mi SSE 5.8 mph - N/A   Clear
7:53 AM 50.0 °F 30.9 °F 48% 29.84 in 10.0 mi SE 10.4 mph - N/A   Clear
8:53 AM 57.0 °F 30.9 °F 37% 29.84 in 10.0 mi SE 9.2 mph - N/A   Clear
9:53 AM 63.0 °F 26.1 °F 25% 29.85 in 10.0 mi SSE 10.4 mph - N/A   Clear
10:53 AM 64.9 °F 25.0 °F 22% 29.84 in 10.0 mi SE 8.1 mph - N/A   Clear
11:53 AM 68.0 °F 23.0 °F 18% 29.80 in 10.0 mi SSE 4.6 mph - N/A   Clear
12:53 PM 72.0 °F 21.9 °F 15% 29.75 in 10.0 mi NE 4.6 mph - N/A   Clear
1:53 PM 73.9 °F 23.0 °F 15% 29.71 in 10.0 mi North 4.6 mph - N/A   Clear
2:53 PM 73.9 °F 36.0 °F 25% 29.70 in 10.0 mi West 12.7 mph 20.7 mph N/A   Clear
3:53 PM 73.0 °F 34.0 °F 24% 29.70 in 10.0 mi WSW 9.2 mph - N/A   Clear
4:53 PM 71.1 °F 36.0 °F 28% 29.69 in 10.0 mi SW 3.5 mph - N/A   Clear
5:53 PM 66.9 °F 39.9 °F 37% 29.70 in 10.0 mi SW 6.9 mph - N/A   Clear
6:53 PM 66.0 °F 39.9 °F 38% 29.70 in 10.0 mi SW 4.6 mph - N/A   Clear
7:53 PM 64.9 °F 41.0 °F 42% 29.70 in 10.0 mi Variable 3.5 mph - N/A   Clear
8:53 PM 64.0 °F 41.0 °F 43% 29.71 in 10.0 mi South 10.4 mph - N/A   Clear
9:53 PM 63.0 °F 39.9 °F 43% 29.73 in 10.0 mi South 6.9 mph - N/A   Clear
10:53 PM 63.0 °F 37.9 °F 40% 29.72 in 10.0 mi Variable 3.5 mph - N/A   Clear
11:53 PM 63.0 °F 37.9 °F 40% 29.71 in 10.0 mi South 13.8 mph 19.6 mph N/A   Clear